Find Starlink 5559

NORAD ID: 56335 Int'l Des: 2023-058 Owner: SPXS Country: US Constellation: starlink operational
LEOCIRCULARRETROGRADESSO

現在のビュー

3D地球を読み込み中...

About Starlink 5559

Starlink 5559 (NORAD 56335) is a starlink constellation satellite (v1.5) launched Apr 27, 2023 by SPXS of US. It operates in LEO, CIRCULAR, RETROGRADE, SSO orbit with a mass of 300.00 kg.

次回通過

Passes for default location (London). Set your location on the main map for personalized predictions.

高度履歴

Loading altitude history...

軌道要素

1 56335U 23058U 26265.77029689 .00000438 00000-0 15889-4 0 9999
2 56335 97.2850 262.5035 0001524 87.9672 272.1745 15.33437787187988
Epoch: Sep 22, 2026 • Age: 10 hours

現在のステータス

高度 477.5 km
遠地点 / 近地点 N/A
速度 7.63 km/s
衛星直下点 76.31°N, 166.05°E
打ち上げ日 Apr 27, 2023
運用期間 3.4 years
タイプ internet

技術仕様

分類 Payload
質量 300.00 kg
乾燥質量 260.00 kg
長さ 0.20 m
スパン 9.00 m
形状 ? Box + pan
製造者 SPXS
バスタイプ Starlink
フェーズステータス In Orbit
所有者/国 SPXS/US

Most Searched